TimeEDT,TemperatureF,Dew PointF,Humidity,Sea Level PressureIn,VisibilityMPH,Wind Direction,Wind SpeedMPH,Gust SpeedMPH,PrecipitationIn,Events,Conditions,WindDirDegrees,DateUTC
12:15 AM,69.8,60.8,73,29.95,10.0,North,8.1,-,N/A,,Scattered Clouds,10,2013-07-25 04:15:00
12:35 AM,69.8,59.0,68,29.96,10.0,NNE,5.8,-,N/A,,Mostly Cloudy,20,2013-07-25 04:35:00
12:55 AM,68.0,59.0,73,29.96,10.0,NNE,6.9,-,N/A,,Overcast,30,2013-07-25 04:55:00
1:15 AM,68.0,59.0,73,29.96,10.0,NNE,5.8,-,N/A,,Overcast,30,2013-07-25 05:15:00
1:35 AM,68.0,59.0,73,29.95,10.0,NNE,8.1,-,N/A,,Overcast,30,2013-07-25 05:35:00
1:55 AM,68.0,59.0,73,29.95,10.0,NNE,6.9,-,N/A,,Overcast,30,2013-07-25 05:55:00
2:15 AM,68.0,59.0,73,29.96,10.0,NNE,6.9,-,N/A,,Overcast,20,2013-07-25 06:15:00
2:35 AM,68.0,59.0,73,29.96,10.0,NNE,9.2,-,N/A,,Overcast,20,2013-07-25 06:35:00
2:55 AM,68.0,59.0,73,29.97,10.0,NNE,6.9,-,N/A,,Overcast,20,2013-07-25 06:55:00
3:15 AM,66.2,59.0,78,29.97,10.0,NNE,9.2,-,N/A,,Overcast,30,2013-07-25 07:15:00
3:35 AM,64.4,59.0,83,29.96,10.0,NNE,9.2,-,N/A,,Overcast,30,2013-07-25 07:35:00
3:55 AM,64.4,57.2,77,29.97,10.0,NE,10.4,16.1,N/A,,Overcast,40,2013-07-25 07:55:00
4:15 AM,64.4,55.4,73,29.97,10.0,NNE,9.2,17.3,N/A,,Overcast,30,2013-07-25 08:15:00
4:35 AM,64.4,55.4,73,29.98,10.0,NNE,8.1,16.1,N/A,,Overcast,30,2013-07-25 08:35:00
4:55 AM,64.4,53.6,68,29.98,10.0,NNE,10.4,-,N/A,,Overcast,30,2013-07-25 08:55:00
5:15 AM,62.6,53.6,72,29.99,10.0,NE,6.9,-,N/A,,Overcast,40,2013-07-25 09:15:00
5:35 AM,62.6,53.6,72,29.99,10.0,NE,8.1,-,N/A,,Overcast,40,2013-07-25 09:35:00
5:55 AM,62.6,53.6,72,29.99,10.0,NNE,9.2,-,N/A,,Mostly Cloudy,30,2013-07-25 09:55:00
6:15 AM,62.6,53.6,72,30.00,10.0,North,-9999.0,-,N/A,,Scattered Clouds,0,2013-07-25 10:15:00
6:35 AM,60.8,53.6,77,29.99,10.0,NNE,8.1,-,N/A,,Scattered Clouds,20,2013-07-25 10:35:00
6:55 AM,60.8,53.6,77,30.00,10.0,NNE,4.6,-,N/A,,Scattered Clouds,20,2013-07-25 10:55:00
7:15 AM,60.8,53.6,77,30.00,10.0,NNE,6.9,-,N/A,,Clear,30,2013-07-25 11:15:00
7:35 AM,60.8,53.6,77,30.01,10.0,NNE,6.9,16.1,N/A,,Clear,20,2013-07-25 11:35:00
7:55 AM,60.8,53.6,77,30.02,10.0,NNE,6.9,-,N/A,,Clear,20,2013-07-25 11:55:00
8:15 AM,62.6,53.6,72,30.03,10.0,NNE,8.1,-,N/A,,Clear,30,2013-07-25 12:15:00
8:35 AM,62.6,53.6,72,30.02,10.0,NNE,8.1,-,N/A,,Clear,20,2013-07-25 12:35:00
8:55 AM,62.6,53.6,72,30.03,10.0,NNE,8.1,-,N/A,,Clear,20,2013-07-25 12:55:00
9:15 AM,62.6,55.4,77,30.03,10.0,North,5.8,-,N/A,,Clear,10,2013-07-25 13:15:00
9:35 AM,64.4,55.4,73,30.02,10.0,North,9.2,-,N/A,,Clear,10,2013-07-25 13:35:00
9:55 AM,66.2,55.4,68,30.03,10.0,North,8.1,-,N/A,,Clear,10,2013-07-25 13:55:00
10:15 AM,68.0,57.2,68,30.03,10.0,North,4.6,-,N/A,,Clear,10,2013-07-25 14:15:00
10:35 AM,68.0,57.2,68,30.03,10.0,North,5.8,-,N/A,,Clear,10,2013-07-25 14:35:00
10:55 AM,69.8,59.0,68,30.04,10.0,North,6.9,-,N/A,,Clear,10,2013-07-25 14:55:00
11:15 AM,69.8,59.0,68,30.04,10.0,NNE,4.6,-,N/A,,Clear,20,2013-07-25 15:15:00
11:35 AM,69.8,59.0,68,30.04,10.0,North,10.4,-,N/A,,Clear,10,2013-07-25 15:35:00
11:55 AM,71.6,57.2,60,30.04,10.0,North,8.1,-,N/A,,Clear,360,2013-07-25 15:55:00
12:15 PM,71.6,57.2,60,30.04,10.0,NNW,8.1,-,N/A,,Clear,340,2013-07-25 16:15:00
12:35 PM,73.4,57.2,57,30.03,10.0,NNW,8.1,-,N/A,,Clear,340,2013-07-25 16:35:00
12:55 PM,73.4,57.2,57,30.03,10.0,NNE,8.1,-,N/A,,Clear,20,2013-07-25 16:55:00
1:15 PM,73.4,59.0,61,30.03,10.0,North,6.9,-,N/A,,Clear,10,2013-07-25 17:15:00
1:35 PM,75.2,59.0,57,30.03,10.0,NNE,9.2,-,N/A,,Clear,20,2013-07-25 17:35:00
1:55 PM,73.4,59.0,61,30.02,10.0,North,9.2,-,N/A,,Clear,350,2013-07-25 17:55:00
2:15 PM,75.2,55.4,50,30.02,10.0,NNE,9.2,-,N/A,,Clear,20,2013-07-25 18:15:00
2:35 PM,77.0,59.0,54,30.02,10.0,North,6.9,-,N/A,,Clear,360,2013-07-25 18:35:00
2:55 PM,77.0,59.0,54,30.02,10.0,NNE,6.9,-,N/A,,Clear,20,2013-07-25 18:55:00
3:15 PM,77.0,59.0,54,30.01,10.0,NNE,6.9,-,N/A,,Clear,30,2013-07-25 19:15:00
3:35 PM,78.8,59.0,51,30.02,10.0,NNE,8.1,-,N/A,,Scattered Clouds,30,2013-07-25 19:35:00
3:55 PM,78.8,59.0,51,30.01,10.0,NE,8.1,-,N/A,,Scattered Clouds,50,2013-07-25 19:55:00
4:15 PM,78.8,57.2,47,30.01,10.0,NE,9.2,-,N/A,,Scattered Clouds,40,2013-07-25 20:15:00
4:35 PM,78.8,55.4,44,30.01,10.0,Calm,Calm,-,N/A,,Clear,0,2013-07-25 20:35:00
4:55 PM,78.8,55.4,44,30.01,10.0,NNE,6.9,-,N/A,,Clear,20,2013-07-25 20:55:00
5:15 PM,78.8,55.4,44,30.01,10.0,NE,6.9,-,N/A,,Clear,40,2013-07-25 21:15:00
5:35 PM,78.8,55.4,44,30.01,10.0,NE,3.5,-,N/A,,Clear,40,2013-07-25 21:35:00
5:55 PM,78.8,55.4,44,30.01,10.0,NNE,6.9,-,N/A,,Clear,30,2013-07-25 21:55:00
6:15 PM,78.8,55.4,44,30.01,10.0,ENE,5.8,-,N/A,,Scattered Clouds,70,2013-07-25 22:15:00
6:35 PM,77.0,57.2,50,30.01,10.0,NNE,5.8,-,N/A,,Scattered Clouds,30,2013-07-25 22:35:00
6:55 PM,77.0,59.0,54,30.02,10.0,NNE,5.8,-,N/A,,Clear,20,2013-07-25 22:55:00
7:15 PM,77.0,59.0,54,30.03,10.0,NE,4.6,-,N/A,,Clear,50,2013-07-25 23:15:00
7:35 PM,77.0,59.0,54,30.03,10.0,NE,6.9,-,N/A,,Scattered Clouds,40,2013-07-25 23:35:00
7:55 PM,75.2,59.0,57,30.03,10.0,NE,3.5,-,N/A,,Scattered Clouds,50,2013-07-25 23:55:00
8:15 PM,73.4,59.0,61,30.03,10.0,NE,4.6,-,N/A,,Clear,40,2013-07-26 00:15:00
8:35 PM,73.4,59.0,61,30.03,10.0,Calm,Calm,-,N/A,,Clear,0,2013-07-26 00:35:00
8:55 PM,71.6,60.8,69,30.04,10.0,NNE,3.5,-,N/A,,Clear,30,2013-07-26 00:55:00
9:15 PM,69.8,60.8,73,30.05,10.0,Calm,Calm,-,N/A,,Clear,0,2013-07-26 01:15:00
9:35 PM,69.8,60.8,73,30.05,10.0,North,3.5,-,N/A,,Clear,350,2013-07-26 01:35:00
9:55 PM,68.0,62.6,83,30.05,10.0,Calm,Calm,-,N/A,,Clear,0,2013-07-26 01:55:00
10:15 PM,68.0,62.6,83,30.06,10.0,NNE,3.5,-,N/A,,Clear,30,2013-07-26 02:15:00
10:35 PM,68.0,62.6,83,30.06,10.0,Calm,Calm,-,N/A,,Clear,0,2013-07-26 02:35:00
10:55 PM,68.0,62.6,83,30.06,10.0,Calm,Calm,-,N/A,,Clear,0,2013-07-26 02:55:00
11:15 PM,64.4,62.6,94,30.06,10.0,NNW,3.5,-,N/A,,Clear,340,2013-07-26 03:15:00
11:35 PM,64.4,62.6,94,30.07,10.0,NNW,3.5,-,N/A,,Clear,340,2013-07-26 03:35:00
11:55 PM,64.4,62.6,94,30.06,10.0,NNW,3.5,-,N/A,,Clear,340,2013-07-26 03:55:00